[[{"header":{"parameterUnit":"m.s-1","parameterCategory":1,"la1":30.2991,"la2":30.254,"lo1":-89.0895,"lo2":-89.0444,"dy":0.0017,"dx":0.0017,"nx":28,"ny":28,"refTime":"2024-05-05T21:00:00:Z","depth":0,"parameterNumber":2,"parameterNumberName":"U-component_of_WINDS"},"data":[0,0,0,0,0,0,0,0,0,0,0,0,0,0,0,0,0,0,0,0,0,0,0,0,0,0,0,0,0,0,0,0,0,0,0,0,0,0,0,0,0,0,0,0,0,0,0,0,0,0,0,0,0,0,0,0,0,0,-2.6779,-2.6781,0,-2.6927,-2.6929,-2.693,-2.6948,-2.6947,-2.6945,-2.6944,-2.7096,-2.7102,-2.7107,0,0,0,0,0,0,0,0,0,0,0,0,0,-2.6514,-2.6519,-2.6779,-2.6781,-2.6783,-2.6927,-2.6929,-2.6931,-2.6949,-2.6947,-2.6945,-2.6943,-2.7095,-2.7101,-2.7108,0,0,0,0,0,0,0,0,0,0,0,0,0,-2.6642,-2.652,-2.6779,-2.6809,-2.6813,-2.6926,-2.6929,-2.6931,-2.6949,-2.6947,-2.6945,-2.6943,-2.7093,-2.71,-2.7108,-2.7202,0,0,-2.7133,-2.7137,0,0,0,0,0,0,0,0,-2.6635,-2.6652,-2.6803,-2.6807,-2.6812,-2.6917,-2.6891,-2.7022,-2.6949,-2.6897,-2.6944,-2.6941,-2.7039,-2.7051,-2.7084,-2.7209,-2.7216,-2.7134,-2.7139,-2.7142,-2.7145,0,0,0,0,0,0,0,-2.6626,-2.6646,-2.6838,-2.6805,-2.6811,-2.6816,-2.6832,-2.6916,-2.6978,-2.6902,-2.6903,-2.6921,-2.7041,-2.7076,-2.7087,-2.7218,-2.7134,-2.7141,-2.7146,-2.7149,-2.7428,-2.7431,0,0,0,0,0,0,-2.6611,-2.6638,-2.6833,-2.6842,-2.6716,-2.6822,-2.684,-2.6886,-2.6978,-2.6989,-2.6922,-2.6921,-2.7063,-2.7078,-2.7093,-2.7208,-2.7142,-2.715,-2.7155,-2.7426,-2.7429,-2.7432,0,0,0,0,0,0,-2.6606,-2.6629,-2.6827,-2.6741,-2.6766,-2.6829,-2.688,-2.689,-2.6924,-2.6993,-2.7004,-2.6946,-2.7062,-2.7081,-2.7175,-2.7214,-2.7154,-2.7161,-2.7423,-2.7427,-2.743,-2.744,0,0,0,0,0,0,-2.6598,-2.6626,-2.6662,-2.6741,-2.6771,-2.6906,-2.6883,-2.6894,-2.6938,-2.6938,-2.7019,-2.703,-2.7062,-2.7163,-2.7183,-2.7224,-2.7167,-2.742,-2.7425,-2.7429,-2.7436,-2.7443,-2.745,0,0,0,0,0,-2.6588,-2.6659,-2.6664,-2.6687,-2.6817,-2.6908,-2.6925,-2.696,-2.6941,-2.6978,-2.7022,-2.7027,-2.7206,-2.7172,-2.7195,-2.7239,-2.7417,-2.7423,-2.7429,-2.7433,-2.7442,-2.7449,0,0,0,0,0,0,-2.6583,-2.667,-2.6676,-2.6774,-2.6834,-2.6911,-2.6958,-2.6968,-2.7034,-2.7031,-2.7071,-2.7089,-2.7181,-2.722,-2.718,-2.7335,-2.731,-2.7321,-2.7306,-2.7315,-2.7321,-2.7309,-2.7174,0,0,0,0,0,-2.6593,-2.666,-2.6732,-2.6812,-2.6842,-2.6895,-2.6936,-2.6958,-2.7021,-2.7046,-2.7097,-2.7159,-2.7229,-2.7274,-2.7343,-2.7443,-2.746,-2.7484,-2.7491,-2.7496,-2.7504,-2.756,-2.7571,-2.7451,-2.7451,-2.745,0,0,-2.6615,-2.6671,-2.671,-2.6813,-2.6861,-2.6929,-2.6916,-2.6989,-2.704,-2.7057,-2.7148,-2.7188,-2.726,-2.7357,-2.7402,-2.7392,-2.7542,-2.7503,-2.7507,-2.7513,-2.7567,-2.7578,-2.7589,-2.7455,-2.7454,-2.7453,0,0,-2.6689,-2.6738,-2.681,-2.6859,-2.6932,-2.6968,-2.6985,-2.7061,-2.7088,-2.718,-2.7195,-2.7257,-2.7377,-2.7427,-2.7468,-2.7563,-2.757,-2.7584,-2.7619,-2.7673,-2.7682,-2.7691,-2.7724,-2.7736,-2.7593,-2.7593,-2.7593,0,-2.6707,-2.681,-2.6846,-2.6918,-2.6963,-2.6982,-2.7055,-2.7101,-2.7193,-2.7224,-2.7211,-2.7362,-2.7412,-2.7521,-2.7544,-2.7577,-2.7598,-2.7575,-2.7678,-2.7687,-2.7695,-2.7728,-2.774,-2.7594,-2.7594,-2.7594,-2.7594,0,-2.6828,-2.6899,-2.6949,-2.7037,-2.7087,-2.716,-2.7207,-2.7254,-2.7271,-2.7308,-2.7402,-2.7462,-2.7543,-2.7571,-2.7589,-2.7683,-2.7674,-2.7669,-2.7645,-2.7707,-2.7738,-2.7751,-2.7596,-2.7595,-2.7595,-2.7595,0,0,-2.6901,-2.7009,-2.7026,-2.7067,-2.715,-2.7206,-2.728,-2.7359,-2.7398,-2.7462,-2.7524,-2.7626,-2.7622,-2.7669,-2.7693,-2.7741,-2.7811,-2.773,-2.7732,-2.7742,-2.7918,-2.7921,-2.7934,-2.7817,-2.782,-2.7822,-2.7912,0,-2.6985,-2.7115,-2.715,-2.7262,-2.7328,-2.7348,-2.7412,-2.747,-2.7507,-2.7569,-2.761,-2.7681,-2.7671,-2.77,-2.7748,-2.7792,-2.7847,-2.7787,-2.7876,-2.7879,-2.7856,-2.7951,-2.7954,-2.8036,-2.7925,-2.7927,-2.7928,0,-2.7099,-2.7164,-2.7282,-2.7356,-2.7386,-2.7443,-2.7518,-2.7577,-2.7644,-2.7668,-2.772,-2.774,-2.7819,-2.7792,-2.79,-2.7858,-2.7898,-2.7925,-2.7929,-2.7938,-2.7906,-2.7961,-2.8063,-2.8075,-2.7948,-2.7946,-2.7945,0,-2.7139,-2.7257,-2.7343,-2.7377,-2.7466,-2.7506,-2.7545,-2.761,-2.7655,-2.7722,-2.7752,-2.7826,-2.7867,-2.7925,-2.7965,-2.7942,-2.807,-2.8046,-2.8092,-2.8091,-2.8117,-2.8114,-2.8225,-2.8144,-2.8143,-2.8143,-2.8143,0,-2.7228,-2.7299,-2.7362,-2.7415,-2.7495,-2.7535,-2.7614,-2.7654,-2.7712,-2.7773,-2.7796,-2.7853,-2.7902,-2.7966,-2.7999,-2.8083,-2.8102,-2.8123,-2.8131,-2.8121,-2.8118,-2.8146,-2.8141,-2.8147,-2.8146,-2.8145,-2.8145,0,-2.7287,-2.7332,-2.7426,-2.7504,-2.7525,-2.7581,-2.7647,-2.7699,-2.7737,-2.7814,-2.7835,-2.7894,-2.7971,-2.8017,-2.8114,-2.8135,-2.8229,-2.8235,-2.8206,-2.8209,-2.8252,-2.8247,-2.8383,-2.8403,-2.8309,-2.831,-2.8311,0,-2.734,-2.7395,-2.7478,-2.752,-2.756,-2.7628,-2.7674,-2.7716,-2.7763,-2.7844,-2.7887,-2.7965,-2.8029,-2.8151,-2.8203,-2.8278,-2.8285,-2.8328,-2.8296,-2.8284,-2.8285,-2.828,-2.8286,-2.8332,-2.8333,-2.8334,-2.8334,0,-2.7429,-2.7448,-2.7514,-2.7588,-2.7642,-2.7702,-2.7762,-2.7796,-2.7848,-2.7901,-2.7979,-2.8029,-2.8128,-2.8205,-2.8284,-2.8326,-2.8339,-2.8344,-2.8358,-2.8348,-2.8329,-2.8339,-2.8219,-2.834,-2.834,-2.8339,-2.8339,-2.8339,-2.7486,-2.7536,-2.7602,-2.7674,-2.7724,-2.7779,-2.7832,-2.7876,-2.7942,-2.8026,-2.8047,-2.8129,-2.8196,-2.8303,-2.8346,-2.8412,-2.8405,-2.8426,-2.8431,-2.8435,-2.8436,-2.8319,-2.8427,-2.8426,-2.8426,-2.8426,-2.8426,0,-2.7576,-2.7619,-2.7685,-2.7768,-2.7825,-2.7833,-2.79,-2.7947,-2.8019,-2.808,-2.8142,-2.8233,-2.8308,-2.8366,-2.8444,-2.8485,-2.8493,-2.8504,-2.8501,-2.851,-2.8438,-2.8417,-2.8496,-2.8496,-2.8496,-2.8496,-2.8496,-2.8496,-2.7629,-2.7713,-2.7741,-2.7851,-2.7894,-2.7974,-2.8012,-2.8064,-2.8112,-2.8211,-2.8274,-2.8311,-2.8371,-2.8453,-2.8523,-2.8538,-2.8566,-2.8575,-2.8591,-2.8523,-2.8515,-2.8508,-2.8489,-2.8581,-2.8581,-2.8658,-2.8659,-2.8659]},{"header":{"parameterUnit":"m.s-1","parameterCategory":1,"la1":30.2991,"la2":30.254,"lo1":-89.0895,"lo2":-89.0444,"dy":0.0017,"dx":0.0017,"nx":28,"ny":28,"refTime":"2024-05-05T21:00:00:Z","depth":0,"parameterNumber":3,"parameterNumberName":"V-component_of_WINDS"},"data":[0,0,0,0,0,0,0,0,0,0,0,0,0,0,0,0,0,0,0,0,0,0,0,0,0,0,0,0,0,0,0,0,0,0,0,0,0,0,0,0,0,0,0,0,0,0,0,0,0,0,0,0,0,0,0,0,0,0,3.97,3.9701,0,3.9797,3.9798,3.9799,3.9793,3.9792,3.979,3.9789,3.9883,3.9887,3.989,0,0,0,0,0,0,0,0,0,0,0,0,0,3.9505,3.9509,3.97,3.9702,3.9703,3.9797,3.9798,3.98,3.9793,3.9792,3.979,3.9788,3.9882,3.9886,3.9891,0,0,0,0,0,0,0,0,0,0,0,0,0,3.9595,3.951,3.97,3.9711,3.9713,3.9797,3.9798,3.98,3.9794,3.9792,3.979,3.9788,3.988,3.9886,3.9891,3.9969,0,0,3.9909,3.9911,0,0,0,0,0,0,0,0,3.959,3.9602,3.9708,3.9711,3.9713,3.9781,3.9764,3.9856,3.9794,3.9763,3.9789,3.9787,3.985,3.9858,3.9881,3.9973,3.9977,3.9909,3.9913,3.9915,3.9917,0,0,0,0,0,0,0,3.9583,3.9598,3.9738,3.971,3.9713,3.971,3.972,3.9781,3.9817,3.9766,3.9765,3.9777,3.9851,3.9875,3.9883,3.9978,3.9909,3.9914,3.9918,3.992,4.0137,4.014,0,0,0,0,0,0,3.9575,3.9592,3.9735,3.9741,3.9645,3.9715,3.9726,3.9761,3.9816,3.9823,3.9779,3.9776,3.9867,3.9876,3.9886,3.998,3.9915,3.992,3.9924,4.0135,4.0138,4.0141,0,0,0,0,0,0,3.9571,3.9588,3.9731,3.9667,3.9685,3.972,3.9759,3.9764,3.9789,3.9827,3.9832,3.9797,3.9865,3.9878,3.9948,3.9983,3.9923,3.9928,4.0132,4.0136,4.0139,4.0167,0,0,0,0,0,0,3.9566,3.9587,3.9618,3.9668,3.9688,3.9793,3.9762,3.9768,3.9799,3.9797,3.9846,3.9852,3.9865,3.994,3.9954,3.999,3.9933,4.0129,4.0134,4.0138,4.0163,4.0171,4.0178,0,0,0,0,0,3.9559,3.9621,3.9619,3.9637,3.9728,3.9795,3.9807,3.9823,3.9802,3.9832,3.9857,3.985,3.9977,3.9947,3.9963,4.0001,4.0127,4.0133,4.0138,4.016,4.017,4.0178,0,0,0,0,0,0,3.9572,3.9628,3.9626,3.9707,3.9747,3.9794,3.9833,3.9832,3.9877,3.9873,3.9889,3.99,3.997,3.9993,3.9958,4.0078,4.0049,4.0058,4.0061,4.007,4.0077,4.007,3.9937,0,0,0,0,0,3.9585,3.9636,3.9681,3.9748,3.9768,3.9797,3.9827,3.9836,3.9877,3.9893,3.9923,3.9961,4.001,4.0041,4.0088,4.0167,4.0177,4.0201,4.0208,4.0214,4.0221,4.0263,4.0274,4.0158,4.0158,4.0158,0,0,3.961,3.9647,3.9679,3.9752,3.9783,3.9835,3.9811,3.9867,3.9905,3.9901,3.9969,3.9992,4.0036,4.0111,4.0145,4.0132,4.0255,4.0221,4.0225,4.0229,4.027,4.0281,4.029,4.0162,4.0161,4.016,0,0,3.9684,3.9718,3.9776,3.9809,3.9858,3.9877,3.9891,3.994,3.9955,4.0024,4.0022,4.0067,4.0151,4.0182,4.0209,4.0294,4.0289,4.0309,4.0347,4.0388,4.0397,4.0405,4.0434,4.0445,4.0316,4.0316,4.0316,0,3.9709,3.9789,3.9806,3.9863,3.9894,3.9895,3.9954,3.9984,4.0045,4.0066,4.0051,4.0156,4.0185,4.0267,4.0288,4.031,4.0325,4.0303,4.0395,4.0403,4.0411,4.0439,4.045,4.0318,4.0318,4.0318,4.0318,0,3.9817,3.9872,3.9913,3.9974,4.001,4.0067,4.0092,4.0126,4.0132,4.0152,4.0221,4.0257,4.0311,4.0332,4.0337,4.0414,4.0404,4.0392,4.0363,4.0424,4.045,4.0461,4.0321,4.032,4.032,4.0319,0,0,3.99,3.9971,3.9985,4.0013,4.0067,4.0109,4.0166,4.022,4.0249,4.0291,4.0337,4.0409,4.0398,4.0428,4.0437,4.0473,4.0537,4.0457,4.0458,4.0469,4.0623,4.0631,4.0643,4.0535,4.0537,4.0539,4.0618,0,3.9978,4.008,4.0098,4.0186,4.0237,4.0238,4.0287,4.0325,4.0346,4.039,4.0412,4.0461,4.0444,4.0462,4.0498,4.0522,4.0568,4.0517,4.0577,4.0579,4.0565,4.0657,4.0666,4.0739,4.0629,4.0631,4.0632,0,4.0083,4.0129,4.0223,4.0271,4.0292,4.0336,4.0387,4.043,4.0473,4.0485,4.0519,4.0524,4.0581,4.0551,4.0629,4.0594,4.0619,4.0635,4.0638,4.0643,4.0608,4.0663,4.0763,4.0773,4.0649,4.0648,4.0646,0,4.0133,4.0219,4.0286,4.0309,4.0367,4.0398,4.0422,4.0463,4.0494,4.0539,4.0559,4.0608,4.0635,4.0673,4.069,4.0667,4.0767,4.0738,4.0777,4.0776,4.0797,4.0795,4.09,4.0815,4.0815,4.0815,4.0815,0,4.0217,4.0274,4.0309,4.035,4.0414,4.0433,4.0495,4.0519,4.0555,4.06,4.0604,4.0645,4.0667,4.0711,4.0725,4.0787,4.0799,4.0809,4.0812,4.0808,4.0807,4.0824,4.0819,4.0818,4.0817,4.0817,4.0816,0,4.0283,4.0309,4.0382,4.0431,4.0445,4.0489,4.053,4.0569,4.059,4.0646,4.0661,4.0692,4.0744,4.0766,4.083,4.0839,4.091,4.0909,4.0896,4.0896,4.0933,4.0929,4.1053,4.107,4.0975,4.0975,4.0976,0,4.0335,4.0379,4.0433,4.0464,4.049,4.054,4.0573,4.0593,4.0626,4.0678,4.0711,4.0763,4.0806,4.089,4.0917,4.0966,4.0965,4.1006,4.0973,4.0967,4.0965,4.0961,4.0965,4.1011,4.1012,4.1013,4.1013,0,4.0423,4.0434,4.0482,4.0534,4.0573,4.0615,4.0655,4.068,4.0706,4.0743,4.0797,4.0831,4.0897,4.0948,4.0999,4.1022,4.1022,4.1024,4.1035,4.1031,4.1021,4.1026,4.0911,4.102,4.102,4.1019,4.1019,4.1019,4.0483,4.0522,4.0567,4.0619,4.0652,4.069,4.0729,4.0755,4.0801,4.0857,4.0866,4.0924,4.0964,4.1032,4.1058,4.1102,4.1092,4.1108,4.1112,4.1116,4.1118,4.1015,4.1111,4.1111,4.1111,4.1111,4.1111,0,4.0571,4.06,4.0648,4.0705,4.0746,4.0744,4.0789,4.0823,4.0874,4.0913,4.0956,4.1017,4.1068,4.11,4.115,4.1179,4.118,4.1191,4.1189,4.1194,4.1125,4.1109,4.119,4.119,4.119,4.119,4.119,4.119,4.0622,4.0687,4.0703,4.0785,4.0813,4.0871,4.0896,4.093,4.0961,4.1031,4.1073,4.1094,4.113,4.1183,4.1228,4.1236,4.1254,4.1266,4.1273,4.1207,4.1199,4.1191,4.1177,4.127,4.127,4.1338,4.1339,4.1339]}]]